Tracking 22881 objects as of 19-Apr-2021
HD Live streaming from Space Station
objects crossing your sky now

AL FARABI 2

Track AL FARABI 2 now!
10-day predictions


NORAD ID: 43805
Int'l Code: 2018-099AZ
Perigee: 576.9 km
Apogee: 596.1 km
Inclination: 97.7 °
Period: 96.3 minutes
Semi major axis: 6957 km
RCS: Unknown
Launch date: December 3, 2018
Source: (TBD)
Launch site: AIR FORCE WESTERN TEST RANGE (AFWTR)
aabbcc
Your satellite tracking list
Your tracking list is empty




NASA's NSSDC Master Catalog

Two Line Element Set (TLE):
1 43805U 18099AZ  21109.88166795  .00001423  00000-0  13184-3 0  9990
2 43805  97.6667 181.9128 0013767 242.2516 117.7289 14.95979295129758
Source of the keplerian elements: AFSPC